Location: Unspecified
(41.1637°N, 24.2901°E)
Time: 01:19:00
(UTC+02:00)

N. Korean satellite - Visible Passes

Search period start: 25 September 2022 00:00
Search period end: 05 October 2022 00:00
Orbit: 428 x 468 km, 97.3° (Epoch: 24 September)

Date Brightness Start Highest point End Pass type
(mag) Time Alt. Az. Time Alt. Az. Time Alt. Az.
26 Sep 8.3 05:12:52 10° NNE 05:15:52 33° E 05:18:51 10° SSE visible
27 Sep 9.9 04:38:58 10° ENE 04:40:03 11° E 04:41:06 10° ESE visible
28 Sep 6.7 05:34:03 10° NNE 05:37:20 70° ESE 05:40:34 10° S visible
29 Sep 9.1 04:58:58 10° NE 05:01:33 21° E 05:04:06 10° SSE visible
01 Oct 7.8 05:19:42 10° NNE 05:22:50 41° E 05:25:57 10° S visible
02 Oct 9.7 04:45:07 10° ENE 04:46:53 14° E 04:48:38 10° SE visible
03 Oct 6.3 05:40:39 10° NNE 05:43:56 88° E 05:47:12 10° SSW visible
04 Oct 8.8 05:05:13 10° NE 05:08:01 25° E 05:10:48 10° SSE visible
